DELTA 1 DEB, 7145

Orbit data source: Space-Track

DELTA 1 DEB, 7145 is space debris in LEO originally from a launch on Tue, 06 Nov 1973 UTC launched from the Air Force Western Test Range (AFWTR). Debris objects in space refer to the collection of defunct objects orbiting the Earth. Examples of debris include non-operational satellites, rocket bodies, and fragments generated from explosions, collisions, or faulty payload assembly.

Loading next visibility...
Identifier
7145, 1973-086DK
Orbit
LEO
Country
Flag of USUS
Related business
Manufacturer
Unknown
Mission
Spacecraft
Bus & Motor
Unknown
Mass
Unknown
Launch date (UTC)
1973-11-06 (53 years ago)
Launch vehicle
Unknown
Launch site
Air Force Western Test Range (AFWTR)
Object type
Payload
Rocket body
Debris
Shape & HBR
Unknown shape, 0.2 m
Radar Cross Section
Medium (>0.1 m² and <1 m²)

Expand to show TLE details & history
Last TLE update: 22 hours ago

TLE from 22 hours ago
0 DELTA 1 DEB
1 07145U 73086DK  26206.42664036 -.00000024  00000-0  17492-3 0  9991
2 07145 101.9435   5.5547 0316393   1.9854  22.3633 11.81591712273322
Epoch: 2026-07-25T10:14Z
TLE epoch observation values (Epoch: 2026-07-25T10:14:21.727Z)
Latitude
25.21279°
Longitude
-96.86261°
Altitude
1,529.971 km
Speed
7.206 km/s
True Right ascension
23h 59m 28s
True Declination
25° 05' 36"
Sunlit
Object was in daylight at epoch
Visualization orbit readout
Latitude
Unknown
Longitude
Unknown
Altitude
Unknown
Speed
Unknown
Apparent Right ascension
Unknown
Apparent Declination
Unknown
Sunlit
N/A
Visualization observer readout
Local Sidereal Time
21:17:34
Azimuth
Unknown
Elevation
Unknown
Doppler factor
Unknown
Orbital elements
Apogee altitude
2,019.539 km
Perigee altitude
1,504.443 km
Semi-major axis
8,140.128 km
Eccentricity
0.03164
Inclination
101.9435°
RAAN
5.5547°
Arg. of periapsis
1.9854°
True anomaly
23.7949°
Mean anomaly
22.3633°
Eccentric anomaly
23.07376°
Mean motion
2.95526 °/min
Orbital period
121.82 mins
BSTAR
0.00017492
Loading maneuver chart data...
Computing Atmospheric mass density...
Loading historical data...
Loading historical data...
Loading historical data...
Loading historical data...
Loading historical data...
Loading historical data...
Loading historical data...

Documentation

Showing up to 5 results
|